Powrót do katalogu

STARLINK-33618

AktywnyŁącznośćVLEO
NORAD 63374·PAYLOAD·🇺🇸 United States

Wystrzelony Mar 26, 2025 z Vandenberg Space Force Base

Loading…

Następne Przeloty (najbliższe 24 godziny)

TLE

ŚwieżeSource: CelesTrak SupGP

Epoka: Sep 15, 2026, 02:19 UTC

1 63374C 25063M   26258.09701389 -.00029905  00000+0 -88346-3 0  2585
2 63374  53.1582 246.6674 0001373  91.7263 258.3781 15.34408407    17

Śledź STARLINK-33618 w czasie rzeczywistym z AllMySat

Download on the App Store